TimeMDT,TemperatureF,Dew PointF,Humidity,Sea Level PressureIn,VisibilityMPH,Wind Direction,Wind SpeedMPH,Gust SpeedMPH,PrecipitationIn,Events,Conditions,WindDirDegrees,DateUTC
12:53 AM,50.0,42.1,74,30.08,10.0,Calm,Calm,-,N/A,,Scattered Clouds,0,2011-10-12 06:53:00
1:53 AM,48.0,42.1,80,30.11,10.0,SSE,5.8,-,N/A,,Scattered Clouds,160,2011-10-12 07:53:00
2:53 AM,46.9,41.0,80,30.13,10.0,SSE,3.5,-,N/A,,Partly Cloudy,150,2011-10-12 08:53:00
3:53 AM,46.9,39.0,74,30.14,10.0,SSE,4.6,-,N/A,,Partly Cloudy,150,2011-10-12 09:53:00
4:53 AM,44.1,37.0,76,30.14,10.0,South,5.8,-,N/A,,Clear,170,2011-10-12 10:53:00
5:53 AM,45.0,37.9,76,30.16,10.0,South,3.5,-,N/A,,Clear,180,2011-10-12 11:53:00
6:53 AM,44.6,35.6,71,30.24,10.0,SSE,3.5,-,N/A,,Partly Cloudy,160,2011-10-12 12:53:00
7:53 AM,44.6,35.6,71,30.25,10.0,South,4.6,-,N/A,,Scattered Clouds,170,2011-10-12 13:53:00
8:53 AM,48.0,39.0,71,30.21,10.0,SE,4.6,-,N/A,,Scattered Clouds,140,2011-10-12 14:53:00
9:53 AM,52.0,39.0,61,30.22,10.0,South,3.5,-,N/A,,Scattered Clouds,170,2011-10-12 15:53:00
10:53 AM,57.0,37.0,47,30.21,10.0,Calm,Calm,-,N/A,,Partly Cloudy,0,2011-10-12 16:53:00
11:53 AM,61.0,36.0,39,30.20,10.0,Calm,Calm,-,N/A,,Partly Cloudy,0,2011-10-12 17:53:00
12:53 PM,64.4,33.8,32,30.27,10.0,Variable,4.6,-,N/A,,Partly Cloudy,0,2011-10-12 18:53:00
1:53 PM,66.0,34.0,30,30.17,10.0,North,6.9,-,N/A,,Scattered Clouds,350,2011-10-12 19:53:00
2:53 PM,64.9,32.0,29,30.16,10.0,Variable,5.8,-,N/A,,Mostly Cloudy,0,2011-10-12 20:53:00
3:53 PM,64.9,33.1,31,30.16,10.0,NNW,5.8,-,N/A,,Mostly Cloudy,340,2011-10-12 21:53:00
4:53 PM,64.9,33.1,31,30.16,10.0,NNE,6.9,-,N/A,,Mostly Cloudy,20,2011-10-12 22:53:00
5:53 PM,62.1,32.0,32,30.16,10.0,NNE,8.1,-,N/A,,Mostly Cloudy,20,2011-10-12 23:53:00
6:53 PM,57.9,32.0,37,30.17,10.0,NE,4.6,-,N/A,,Mostly Cloudy,40,2011-10-13 00:53:00
7:53 PM,55.9,30.9,39,30.18,10.0,ESE,6.9,-,N/A,,Mostly Cloudy,110,2011-10-13 01:53:00
8:53 PM,52.0,32.0,47,30.17,10.0,South,5.8,-,N/A,,Mostly Cloudy,180,2011-10-13 02:53:00
9:53 PM,50.0,30.0,46,30.17,10.0,SE,9.2,-,N/A,,Scattered Clouds,140,2011-10-13 03:53:00
10:53 PM,51.1,32.0,48,30.14,10.0,SSE,10.4,-,N/A,,Scattered Clouds,160,2011-10-13 04:53:00
11:53 PM,48.0,33.1,56,30.14,10.0,ESE,6.9,-,N/A,,Partly Cloudy,120,2011-10-13 05:53:00